Location: Artiguedieu
(43.5000°N, 0.5454°E)
Time: 10:40:43
(UTC+00:00)

Cosmos 2074 Rocket - Pass Details

Date: 06 December 2020
Orbit: 968 x 985 km, 82.9° (Epoch: 27 January)

Event Time Altitude Azimuth Distance (km) Brightness Sun altitude
Rises 04:56:36 0° 199° (SSW) 3,645 6.9 -24.6°
Reaches altitude 10° 04:59:09 10° 204° (SSW) 2,702 6.2 -24.1°
Maximum altitude 05:05:13 56° 282° (WNW) 1,145 4.0 -23.0°
Drops below altitude 10° 05:11:20 10° 360° (N) 2,723 6.2 -21.9°
Sets 05:13:55 0° 5° (N) 3,676 7.0 -21.5°
